| time (UTC) | temp C | wind direction | speed KPH | gust KPH | rain 1hr cm | rain 24hr cm | rain mn cm | humidity % | barometer mb |
| 20260506200058 | 6 | 0 | 0.0 | 6.4 | 0.00 | 0.00 | 0.00 | 76 | 1012.3 |
| 20260506194556 | 6 | 162 | 3.2 | 12.9 | 0.00 | 0.00 | 0.00 | 76 | 1012.4 |
| 20260506193056 | 6 | 200 | 1.6 | 11.3 | 0.00 | 0.00 | 0.00 | 75 | 1012.4 |
| 20260506191604 | 6 | 130 | 3.2 | 9.7 | 0.00 | 0.00 | 0.00 | 74 | 1012.6 |
| 20260506190058 | 6 | 135 | 3.2 | 11.3 | 0.00 | 0.00 | 0.00 | 72 | 1012.5 |
| 20260506184559 | 6 | 91 | 6.4 | 16.1 | 0.00 | 0.00 | 0.00 | 70 | 1012.1 |
| 20260506183103 | 7 | 152 | 4.8 | 14.5 | 0.00 | 0.00 | 0.00 | 67 | 1012.0 |
| 20260506181601 | 8 | 150 | 3.2 | 12.9 | 0.00 | 0.00 | 0.00 | 63 | 1012.1 |
| 20260506180058 | 8 | 150 | 6.4 | 19.3 | 0.00 | 0.00 | 0.00 | 59 | 1012.0 |
| 20260506174608 | 10 | 193 | 1.6 | 17.7 | 0.00 | 0.00 | 0.00 | 55 | 1012.0 |
| 20260506173059 | 10 | 94 | 3.2 | 11.3 | 0.00 | 0.00 | 0.00 | 50 | 1011.9 |
| 20260506171606 | 11 | 132 | 4.8 | 12.9 | 0.00 | 0.00 | 0.00 | 46 | 1011.8 |
| 20260506170104 | 11 | 100 | 8.0 | 17.7 | 0.00 | 0.00 | 0.00 | 45 | 1011.5 |
| 20260506164600 | 11 | 127 | 3.2 | 12.9 | 0.00 | 0.00 | 0.00 | 44 | 1011.5 |
| 20260506163131 | 11 | 0 | 0.0 | 4.8 | 0.00 | 0.00 | 0.00 | 41 | 1011.4 |
| 20260506161557 | 11 | 94 | 0.0 | 6.4 | 0.00 | 0.00 | 0.00 | 41 | 1011.4 |
| 20260506154556 | 12 | 58 | 3.2 | 6.4 | 0.00 | 0.00 | 0.00 | 39 | 1011.0 |
| 20260506153134 | 12 | 101 | 3.2 | 9.7 | 0.00 | 0.00 | 0.00 | 35 | 1011.0 |
| 20260506151605 | 12 | 114 | 3.2 | 12.9 | 0.00 | 0.00 | 0.00 | 35 | 1010.9 |
| 20260506150059 | 12 | 101 | 4.8 | 14.5 | 0.00 | 0.00 | 0.00 | 32 | 1011.4 |
| 20260506144604 | 12 | 104 | 4.8 | 12.9 | 0.00 | 0.00 | 0.00 | 31 | 1011.6 |
| 20260506143057 | 12 | 113 | 3.2 | 12.9 | 0.00 | 0.00 | 0.00 | 38 | 1012.1 |
| 20260506141601 | 12 | 47 | 4.8 | 11.3 | 0.00 | 0.00 | 0.00 | 36 | 1012.3 |
| 20260506134610 | 13 | 100 | 4.8 | 12.9 | 0.00 | 0.00 | 0.00 | 36 | 1012.5 |
| 20260506133109 | 13 | 47 | 6.4 | 16.1 | 0.00 | 0.00 | 0.00 | 38 | 1012.6 |
| 20260506131608 | 13 | 35 | 4.8 | 14.5 | 0.00 | 0.00 | 0.00 | 40 | 1012.6 |
| 20260506130110 | 13 | 126 | 6.4 | 14.5 | 0.00 | 0.00 | 0.00 | 38 | 1012.6 |
| 20260506124610 | 13 | 104 | 0.0 | 6.4 | 0.00 | 0.00 | 0.00 | 39 | 1012.8 |
| 20260506123114 | 13 | 68 | 4.8 | 12.9 | 0.00 | 0.00 | 0.00 | 40 | 1012.7 |
| 20260506121611 | 13 | 36 | 4.8 | 19.3 | 0.00 | 0.00 | 0.00 | 42 | 1012.5 |
| 20260506120058 | 13 | 5 | 3.2 | 12.9 | 0.00 | 0.00 | 0.00 | 44 | 1012.6 |
| 20260506114557 | 13 | 114 | 4.8 | 14.5 | 0.00 | 0.00 | 0.00 | 41 | 1012.5 |
| 20260506113054 | 13 | 205 | 0.0 | 12.9 | 0.00 | 0.00 | 0.00 | 39 | 1012.8 |
| 20260506111555 | 13 | 53 | 4.8 | 12.9 | 0.00 | 0.00 | 0.00 | 43 | 1012.8 |
| 20260506110104 | 13 | 29 | 4.8 | 12.9 | 0.00 | 0.00 | 0.00 | 38 | 1012.8 |
| 20260506104606 | 12 | 341 | 1.6 | 9.7 | 0.00 | 0.00 | 0.00 | 44 | 1012.8 |
| 20260506103103 | 11 | 70 | 1.6 | 11.3 | 0.00 | 0.00 | 0.00 | 45 | 1013.0 |
| 20260506101618 | 11 | 355 | 3.2 | 14.5 | 0.00 | 0.00 | 0.00 | 45 | 1013.2 |
| 20260506100058 | 11 | 123 | 4.8 | 12.9 | 0.00 | 0.00 | 0.00 | 42 | 1013.2 |
| 20260506094559 | 11 | 304 | 3.2 | 8.0 | 0.00 | 0.00 | 0.00 | 44 | 1013.1 |
| 20260506093100 | 11 | 142 | 1.6 | 14.5 | 0.00 | 0.00 | 0.00 | 44 | 1013.3 |
| 20260506091556 | 10 | 311 | 3.2 | 9.7 | 0.00 | 0.00 | 0.00 | 45 | 1013.3 |
| 20260506090111 | 11 | 325 | 4.8 | 12.9 | 0.00 | 0.00 | 0.00 | 48 | 1013.3 |
| 20260506084632 | 11 | 329 | 1.6 | 9.7 | 0.00 | 0.00 | 0.00 | 48 | 1013.3 |
| 20260506083058 | 10 | 77 | 3.2 | 8.0 | 0.00 | 0.00 | 0.00 | 49 | 1013.4 |
| 20260506081611 | 10 | 271 | 4.8 | 12.9 | 0.00 | 0.00 | 0.00 | 51 | 1013.4 |
| 20260506073056 | 9 | 98 | 1.6 | 9.7 | 0.00 | 0.00 | 0.00 | 56 | 1013.2 |
| 20260506071559 | 9 | 5 | 4.8 | 9.7 | 0.00 | 0.00 | 0.00 | 60 | 1013.2 |
| 20260506061556 | 8 | 224 | 3.2 | 9.7 | 0.00 | 0.00 | 0.00 | 60 | 1012.8 |
| 20260506050117 | 6 | 20 | 1.6 | 4.8 | 0.00 | 0.00 | 0.00 | 67 | 1013.0 |
| 20260506044554 | 6 | 328 | 0.0 | 3.2 | 0.00 | 0.00 | 0.00 | 70 | 1012.8 |
| 20260506043059 | 4 | 0 | 0.0 | 1.6 | 0.00 | 0.00 | 0.00 | 75 | 1012.8 |
| 20260506041602 | 3 | 275 | 0.0 | 3.2 | 0.00 | 0.00 | 0.00 | 78 | 1012.6 |
| 20260506040057 | 2 | 275 | 0.0 | 3.2 | 0.00 | 0.00 | 0.00 | 81 | 1012.3 |
| 20260506034558 | 2 | 275 | 0.0 | 1.6 | 0.00 | 0.00 | 0.00 | 85 | 1012.2 |
| 20260506033054 | 1 | 0 | 0.0 | 0.0 | 0.00 | 0.00 | 0.00 | 89 | 1012.1 |
| 20260506031556 | 0 | 0 | 0.0 | 0.0 | 0.00 | 0.00 | 0.00 | 89 | 1011.8 |
| 20260506030058 | 0 | 0 | 0.0 | 0.0 | 0.00 | 0.00 | 0.00 | 88 | 1011.6 |
| 20260506024608 | 0 | 0 | 0.0 | 1.6 | 0.00 | 0.00 | 0.00 | 88 | 1011.5 |
| 20260506023108 | 0 | 0 | 0.0 | 0.0 | 0.00 | 0.00 | 0.00 | 88 | 1011.5 |
| 20260506021556 | 0 | 0 | 0.0 | 0.0 | 0.00 | 0.00 | 0.00 | 86 | 1011.3 |
| 20260506020057 | 0 | 0 | 0.0 | 0.0 | 0.00 | 0.00 | 0.00 | 87 | 1011.1 |
| 20260506014557 | 0 | 0 | 0.0 | 0.0 | 0.00 | 0.00 | 0.00 | 84 | 1011.0 |
| 20260506013059 | 1 | 0 | 0.0 | 0.0 | 0.00 | 0.00 | 0.00 | 84 | 1010.9 |
| 20260506011606 | 1 | 0 | 0.0 | 0.0 | 0.00 | 0.00 | 0.00 | 82 | 1010.9 |
| 20260506010055 | 1 | 0 | 0.0 | 0.0 | 0.00 | 0.00 | 0.00 | 81 | 1010.7 |
| 20260506004600 | 2 | 0 | 0.0 | 0.0 | 0.00 | 0.00 | 0.00 | 79 | 1010.4 |
| 20260506003054 | 2 | 0 | 0.0 | 0.0 | 0.00 | 0.00 | 0.00 | 78 | 1010.3 |
| 20260506001559 | 3 | 0 | 0.0 | 0.0 | 0.00 | 0.00 | 0.00 | 76 | 1010.1 |
| 20260506000104 | 3 | 0 | 0.0 | 1.6 | 0.00 | 0.00 | 0.00 | 76 | 1010.1 |
| 20260505234555 | 3 | 0 | 0.0 | 1.6 | 0.00 | 0.00 | 0.00 | 74 | 1010.1 |
| 20260505233058 | 4 | 0 | 0.0 | 3.2 | 0.00 | 0.00 | 0.00 | 74 | 1010.0 |
| 20260505231555 | 4 | 319 | 0.0 | 1.6 | 0.00 | 0.00 | 0.00 | 74 | 1010.0 |
| 20260505230121 | 5 | 0 | 0.0 | 4.8 | 0.00 | 0.00 | 0.00 | 73 | 1009.9 |
| 20260505224556 | 5 | 0 | 0.0 | 3.2 | 0.00 | 0.00 | 0.00 | 73 | 1009.8 |
| 20260505223058 | 6 | 336 | 0.0 | 3.2 | 0.00 | 0.00 | 0.00 | 70 | 1009.7 |
| 20260505221603 | 6 | 309 | 0.0 | 6.4 | 0.00 | 0.00 | 0.00 | 69 | 1009.7 |
| 20260505214604 | 7 | 349 | 3.2 | 8.0 | 0.00 | 0.00 | 0.00 | 69 | 1009.2 |
| 20260505213055 | 7 | 355 | 3.2 | 14.5 | 0.00 | 0.00 | 0.00 | 69 | 1009.0 |
| 20260505211605 | 8 | 326 | 3.2 | 9.7 | 0.00 | 0.00 | 0.00 | 72 | 1008.9 |
| 20260505210107 | 8 | 336 | 3.2 | 9.7 | 0.00 | 0.00 | 0.00 | 72 | 1008.8 |
| 20260505204602 | 8 | 294 | 4.8 | 12.9 | 0.00 | 0.00 | 0.00 | 71 | 1008.5 |
| 20260505203107 | 8 | 291 | 1.6 | 11.3 | 0.00 | 0.00 | 0.00 | 71 | 1008.3 |
| 20260505201557 | 9 | 312 | 4.8 | 14.5 | 0.00 | 0.00 | 0.00 | 69 | 1008.3 |